Location: Unspecified
(40.7945°N, 0.0000°E)
Time: 06:55:27
(UTC+00:00)

AIST 2D - Pass Details

Date: 23 July 2019
Orbit: 458 x 470 km, 97.2° (Epoch: 21 August)

Event Time Altitude Azimuth Distance (km) Brightness Sun altitude
Rises 22:42:24 0° 14° (NNE) 2,515 ? -26.2°
Reaches altitude 10° 22:44:28 10° 17° (NNE) 1,636 ? -26.3°
Enters shadow 22:46:07 26° 23° (NNE) 972 ? -26.4°
